Вернуться в каталог

FENGYUN 1C DEB

АктивенPO
NORAD 35144·DEBRIS·🇨🇳 China

Запущен May 10, 1999 с Taiyuan Satellite Launch Center

Loading…

Ближайшие Пролёты (ближайшие 24 часа)

TLE

СвежийSource: Space-Track

Эпоха: Sep 13, 2026, 19:57 UTC

1 35144U 99025DLY 26256.83159006  .00007500  00000-0  13844-2 0  9999
2 35144  98.7137  32.1625 0024225 232.0292 127.8722 14.65588138692351

Отслеживайте FENGYUN 1C DEB в реальном времени с AllMySat

Download on the App Store